Regional Weather Roundup
Issued by NWS

Home | Current Version | Previous Version | Text Only | Print | Product List | Glossary On
Versions: 1 2 3 4 5 6 7 8 9 10 11 12 13 14 15 16 17 18 19 20 21 22 23 24 25 26 27 28 29 30 31 32 33 34 35 36 37 38 39 40 41 42 43 44 45 46 47 48 49 50
000
ASUS45 KTFX 051219
RWRMT
MONTANA REGIONAL WEATHER ROUNDUP
NATIONAL WEATHER SERVICE GREAT FALLS MT
600 AM MDT SAT SEP 05 2015

NOTE: "FAIR" INDICATES FEW OR NO CLOUDS BELOW 12000 FEET WITH NO
SIGNIFICANT WEATHER AND/OR OBSTRUCTIONS TO VISIBILITY.

MTZ001>007-043-051300-
WEST OF THE DIVIDE

CITY           SKY/WX    TMP DP  RH WIND       PRES   REMARKS
KALISPELL      LGT RAIN  50  41  71 N12       29.86R
MISSOULA       CLOUDY    50  47  89 S6        29.87R
BUTTE          CLOUDY    41  40  96 SE5       29.90F
MULLAN PASS    FOG       39  39 100 SE7       29.86S VSB 1/4
DEER LODGE       N/A     46  43  87 NW9       29.91F
EUREKA           N/A     48  43  81 N3        29.93R
HAMILTON         N/A     50  48  93 W7        29.85F
LIBBY            N/A     46  45  93 CALM      29.92S
RONAN            N/A     50  45  83 E1        29.94R
$$

MTZ008-052>055-051300-
SOUTHWEST MONTANA

CITY           SKY/WX    TMP DP  RH WIND       PRES   REMARKS
BOZEMAN        CLOUDY    49  47  93 CALM      29.87R
DILLON         CLOUDY    49  44  83 CALM      29.88R
W YELLOWSTONE  MOCLDY    45  39  81 SW5       29.95R
THREE FORKS      N/A     50  30  46 N5        29.88S
TWIN BRIDGES     N/A     51  43  74 N8        29.87F
$$

MTZ009-010-012-014-046-048-049-054-051300-
EAST SLOPES AND CENTRAL MONTANA

CITY           SKY/WX    TMP DP  RH WIND       PRES   REMARKS
CUT BANK       LGT RAIN  44  44 100 N7        29.96F
GREAT FALLS    RAIN      47  47 100 N12       29.91S VSB 1/4
MALMSTROM AFB  FOG       47  48 100 N13       29.91R VSB 3/8
HELENA         LGT RAIN  48  45  89 W7        29.92R
$$

MTZ011-013-016-021-045-047-050-051-051300-
NORTH CENTRAL MONTANA

CITY           SKY/WX    TMP DP  RH WIND       PRES   REMARKS
HAVRE          CLOUDY    48  46  93 NE13      29.95F
LEWISTOWN      CLOUDY    49  46  90 SE12      29.91F
N BAR RANCH    FOG       46  46 100 E7        29.93F VSB 1
CHINOOK          N/A     48  48 100 NE3       29.96F
FORT BENTON      N/A     48  48 100 NE9       29.92F
$$

MTZ017>020-022>027-061-062-051300-
NORTHEAST MONTANA

CITY           SKY/WX    TMP DP  RH WIND       PRES   REMARKS
GLASGOW        CLOUDY    53  48  83 N7        29.93S
JORDAN           N/A     54  49  83 N9        29.89F
SIDNEY         CLOUDY    59  55  88 N9          N/A
WOLF POINT     CLOUDY    56  49  77 NE18G25   29.89F
MALTA            N/A     51  46  83 N6        29.91S
PLENTYWOOD       N/A     54  52  94 N13       29.92F
POPLAR           N/A     55  52  88 N17G23    29.87F
$$

MTZ028>42-056>058-051300-
SOUTHCENTRAL AND SOUTHEAST MONTANA

CITY           SKY/WX    TMP DP  RH WIND       PRES   REMARKS
BAKER          MOCLDY    61  58  90 CALM      29.84R
BILLINGS       CLOUDY    53  48  83 N8        29.90F
LIVINGSTON     CLOUDY    52  47  83 E15G25    29.87S
MILES CITY     CLOUDY    60  57  89 NE14      29.84R
EKALAKA          N/A     60  54  80 CALM      29.85R
FORSYTH          N/A     57  55  94 NW5       29.85F
LAUREL           N/A     53  46  77 NE5       29.90F
ROUNDUP          N/A     49  45  86 CALM      29.84F
$$

REGIONAL REPORTS...DAKOTAS

CITY           SKY/WX    TMP DP  RH WIND       PRES   REMARKS
WILLISTON      MOCLDY    59  57  93 NE9       29.87S
MINOT          CLOUDY    59  57  93 NE15      29.90F
DICKINSON      CLOUDY    63  61  93 E16       29.83F
BEACH          FOG       59  59 100 N7        29.86S VSB 1/4
CROSBY         CLOUDY    54  54 100 NE13      29.92S
BISMARCK       CLOUDY    68  68 100 E12       29.84F FOG
GRAND FORKS    FOG       64  63  94 N14       29.87F VSB 1/4
FARGO          CLEAR     68  66  93 NE3       29.84S
BUFFALO SD       N/A     64  61  90 E16       29.75F
RAPID CITY     CLOUDY    67  59  75 N5        29.83S
$$

REGIONAL REPORTS...WYOMING/IDAHO/WASHINGTON

CITY           SKY/WX    TMP DP  RH WIND       PRES   REMARKS
GILLETTE       PTCLDY    53  50  89 SW3       29.89F
SHERIDAN       CLEAR     51  47  86 W9        29.90R
BUFFALO WY     CLEAR     49  46  90 W3        29.93R
CODY           PTCLDY    45  43  93 S6        29.94S
YELLOWSTONE LA   N/A     48  43  82 CALM      30.02F
IDAHO FALLS    CLEAR     49  36  61 S17       29.92R
SALMON         CLOUDY    48  43  81 E5        29.88S
BOISE          CLEAR     49  39  68 CALM      29.95R
SPOKANE        LGT RAIN  48  46  93 S5        29.83R
$$

REGIONAL REPORTS...ALBERTA

CITY           SKY/WX    TMP DP  RH WIND       PRES   REMARKS
EDMONTON       MOCLDY    37  34  87 N3        30.17R
CALGARY        LGT RAIN  43  41  93 N8        30.11F FOG
LETHBRIDGE     LGT RAIN  45  43  93 NE14G21   30.01F
MEDICINE HAT   CLOUDY    48  46  93 NE9       30.02F
WATERTON GATE    N/A     39  36  87 NW7         N/A
CARDSTON         N/A     43  43 100 N7          N/A
MILK RIVER       N/A     46  45  93 E13G18      N/A
$$

REGIONAL REPORTS...SASKATCHEWAN

CITY           SKY/WX    TMP DP  RH WIND       PRES   REMARKS
SWIFT CURRENT  LGT RAIN  48 N/A N/A NE17G23   29.99F
REGINA         LGT RAIN  50  48  93 N14G22    30.04R
SASKATOON      CLOUDY    50  45  81 NE10      30.12R
CYPRESS HILLS    N/A     41  39  93 E9          N/A
VAL MARIE        N/A     48  46  93 NE10        N/A
ROCKGLEN         N/A     48  48 100 N9          N/A
ASSINIBOIA       N/A     34  34 100 NE2         N/A
$$


USA.gov is the U.S. government's official web portal to all federal, state and local government web resources and services.